Flag for Switzerland Weather past 2 weeks in Bülach, Zurich, Switzerland

Now
38 °F

Chilly.


Feels Like: 30 °F
Forecast: 23 / 35 °F
Wind: 12 mph from Southwest

Location: Zurich-Kloten

Current Time: Jan 31, 2015 at 3:49:02 PM

Latest Report: Jan 31, 2015 at 3:00 PM


Visibility: N/A

Pressure: 29.12 "Hg

Humidity: 59%

Dew point: 24 °F

Location of BülachLocation

Historic Weather in Bülach — Graph

°F

Bülach temperature yesterday

Maximum temperature yesterday: 36 °F (at 4:00 PM)
Minimum temperature yesterday: 32 °F (at 8:00 PM)
Average temperature yesterday: 34 °F

Past Weeks' High & Low Weather Summary

 TemperatureHumidityPressure
High45 °F (Jan 16, 4:00 PM)100% (Jan 18, 6:00 AM)30.48 "Hg (Jan 18, 6:00 AM)
Low23 °F (Jan 26, 5:00 AM)56% (Jan 31, 1:00 PM)28.88 "Hg (Jan 30, 12:00 AM)
Average33 °F87%29.94 "Hg
* Reported Jan 16 2:00 PM — Jan 31 2:00 PM, Bülach, Weather by CustomWeather, © 2014

Note: Actual official high and low records may vary slightly from our data, if they occured in-between our weather recording intervals... More about our weather records

Advertising

Bülach weather history for previous 24 hours

 ConditionsComfort  
Time TempWeatherWind HumidityBarometerVisibility
2:00 PM
Jan 31
38 °FChilly.12 mph57%29.12 "HgN/A
1:00 PM38 °FOvercast.9 mph56%29.12 "Hg19 mi
12:00 PM37 °FChilly.5 mph61%29.12 "HgN/A
11:00 AM36 °FChilly.5 mph71%29.12 "HgN/A
10:00 AM33 °FPartly sunny.3 mph80%29.12 "Hg16 mi
9:00 AM30 °FChilly.3 mph91%29.15 "HgN/A
8:00 AM28 °FChilly.5 mph96%29.12 "HgN/A
7:00 AM30 °FPassing clouds.1 mph91%29.12 "Hg12 mi
6:00 AM30 °FChilly.2 mph90%29.12 "HgN/A
5:00 AM33 °FChilly.5 mph84%29.09 "HgN/A
3:00 AM34 °FChilly.6 mph83%29.09 "HgN/A
2:00 AM34 °FChilly.8 mph85%29.06 "HgN/A
1:00 AM33 °FSnow flurries. Low clouds.6 mph87%29.06 "Hg7 mi
12:00 AM33 °FChilly.9 mph90%29.03 "HgN/A
11:00 PM
Jan 30
33 °FChilly.10 mph87%29.03 "HgN/A
10:00 PM33 °FOvercast.15 mph84%29.00 "Hg5 mi
9:00 PM33 °FChilly.14 mph87%29.00 "HgN/A
8:00 PM32 °FChilly.7 mph91%29.00 "HgN/A
7:00 PM32 °FSnow flurries. Overcast.6 mph88%28.97 "Hg2 mi
6:00 PM33 °FChilly.9 mph81%28.97 "HgN/A
5:00 PM36 °FChilly.13 mph67%28.97 "HgN/A
4:00 PM36 °FOvercast.9 mph70%28.97 "Hg22 mi
3:00 PM36 °FChilly.17 mph71%28.97 "HgN/A
Weather by CustomWeather, © 2014

See weather overviewHow to use our weather pages